Location: Clarion
(42.7316°N, 93.7330°W)
Time: 08:53:32
(UTC+00:00)

Cosmos 990 Rocket - Pass Details

Date: 22 April 2026
Orbit: 743 x 763 km, 74.0° (Epoch: 17 May)

Event Time Altitude Azimuth Distance (km) Brightness Sun altitude
Rises 08:45:02 0° 341° (NNW) 3,193 7.6 -25.0°
Reaches altitude 10° 08:47:24 10° 343° (NNW) 2,267 6.8 -24.7°
Maximum altitude 08:52:32 77° 69° (ENE) 769 4.0 -24.1°
Enters shadow 08:55:11 29° 152° (SSE) 1,347 5.1 -23.7°
